Погода в Труфаново

Россия / Тюменская область     57°10′15″N   65°25′05″E
темп.,
°C
ветер,
м/с
пор.,
м/с
влажн.,
%
обл.,
%
осадки,
мм/ч
давл.,
гПа
погр.,
м
3 марта, ср
ср323:00−13ююз51292100 0.0 1004390
02:00−13ю5994100 0.2 1002345
05:00−14ю51094100 0.3 1001293
08:00−12ююз5994100 0.1 1000342
11:00−8ююз6991100 0.4 999632
14:00−5ююз6990100 0.1 999733
17:00−4юз5990100 0.3 999722
20:00−4ююз41092100 0.1 999453
4 марта, чт
чт423:00−7ююз489499 0.1 999202
02:00−9ююз479599 0.0 998132
05:00−8ююз3695100 0.1 997108
08:00−10ююз349596 0.0 99759
11:00−4юз369484 0.2 996371
14:00−2юз468894 0.0 994731
17:00−3зюз589195 0.1 995588
20:00−4з6119294 0.4 996649
5 марта, пт
пт523:00−9зюз5109097 0.4 998215
02:00−13ююз44930 0.0 99875
05:00−12ю479433 0.0 997170
08:00−8ю3995100 0.9 996450
11:00−5зюз469099 1.0 997557
14:00−2зюз5883100 0.1 999915
17:00−2юз5989100 0.1 1001705
20:00−5ююз4890100 0.0 1000163
6 марта, сб
сб623:00−6ююз3492100 0.0 100063
02:00−7зюз239395 0.0 99923
05:00−8зсз339298 0.0 99941
08:00−10зсз4892100 0.0 999197
11:00−8з6108979 0.0 1002477
14:00−7з7108890 0.1 1004722
17:00−8з6118794 0.1 1006750
20:00−12з5119071 0.0 1008212
7 марта, вс
вс723:00−15зюз449335 0.0 100968
02:00−17з349361 0.0 100942
05:00−18з239380 0.0 100920
08:00−18зсз2293100 0.0 100820
11:00−13сз2384100 0.0 1007239
14:00−9зсз237849 0.0 1007492
17:00−9юз118666 0.0 100828
20:00−13зюз338972 0.0 100921